EW5231 Weather Reports


time (UTC)temp
C
wind
direction
speed
KPH
gust
KPH
rain 1hr
cm
rain 24hr
cm
rain mn
cm
humidity
%
barometer
mb
20260504081502 3 153 3.2 8.0 0.00 0.00 0.00 76 1007.3
20260504044537 4 281 6.4 16.1 0.00 0.00 0.00 51 1007.9
20260504043037 4 231 1.6 11.3 0.00 0.00 0.00 51 1008.2
20260504041536 4 259 6.4 14.5 0.00 0.00 0.00 49 1008.3
20260504040041 3 267 3.2 8.0 0.00 0.00 0.00 52 1008.3
20260504034536 3 235 1.6 6.4 0.00 0.00 0.00 52 1008.1
20260504033046 3 257 4.8 14.5 0.00 0.00 0.00 51 1008.2
20260504031536 3 286 4.8 12.9 0.00 0.00 0.00 51 1008.1
20260504031532 3 272 4.8 12.9 0.00 0.00 0.00 50 1008.1
20260504030031 3 273 4.8 11.3 0.00 0.00 0.00 52 1008.1
20260504024542 3 276 4.8 16.1 0.00 0.00 0.00 54 1008.2
20260504023059 3 259 3.2 11.3 0.00 0.00 0.00 55 1008.1
20260504021558 2 301 3.2 11.3 0.00 0.00 0.00 56 1008.1
20260504020031 3 303 3.2 11.3 0.00 0.00 0.00 56 1008.3
20260504014531 2 276 3.2 11.3 0.00 0.00 0.00 60 1008.2
20260504013044 1 246 1.6 4.8 0.00 0.00 0.00 66 1008.2
20260504011502 1 269 0.0 4.8 0.00 0.00 0.00 66 1008.1
20260504010029 1 283 0.0 3.2 0.00 0.00 0.00 65 1007.9
20260504004539 1 275 0.0 1.6 0.00 0.00 0.00 63 1007.8
20260504003014 2 275 0.0 3.2 0.00 0.00 0.00 60 1007.8
20260504001506 3 282 0.0 4.8 0.00 0.00 0.00 55 1007.7
20260504000003 3 279 1.6 8.0 0.00 0.03 0.00 54 1007.6
20260503234503 4 279 1.6 9.7 0.00 0.03 0.00 54 1007.6
20260503233002 5 316 6.4 17.7 0.00 0.03 0.00 51 1007.5
20260503231503 5 293 8.0 17.7 0.00 0.03 0.00 48 1007.5
20260503230032 6 313 8.0 19.3 0.00 0.05 0.00 49 1007.4
20260503224531 6 335 6.4 17.7 0.00 0.05 0.00 50 1007.3
20260503223011 5 305 6.4 19.3 0.00 0.05 0.00 49 1007.5
20260503221513 6 346 6.4 19.3 0.00 0.05 0.00 50 1007.5
20260503214538 6 294 8.0 20.9 0.00 0.13 0.00 51 1007.2
20260503213038 5 355 8.0 16.1 0.00 0.13 0.00 51 1007.2
20260503211541 5 328 9.7 19.3 0.00 0.13 0.00 52 1007.2
20260503210032 6 293 6.4 22.5 0.00 0.13 0.00 52 1007.2
20260503204505 6 281 6.4 19.3 0.00 0.13 0.00 54 1007.1
20260503203003 5 249 11.3 22.5 0.00 0.13 0.00 52 1007.2
20260503201502 5 305 9.7 24.1 0.00 0.13 0.00 52 1007.2
20260503200001 5 335 12.9 27.4 0.00 0.13 0.00 53 1007.2
20260503194600 5 283 6.4 19.3 0.00 0.13 0.00 56 1007.5
20260503193038 5 315 11.3 22.5 0.00 0.13 0.00 50 1007.5
20260503191530 5 346 11.3 25.7 0.00 0.13 0.00 51 1007.5
20260503190100 5 199 11.3 27.4 0.00 0.13 0.00 52 1007.4
20260503184608 6 277 14.5 30.6 0.00 0.13 0.00 47 1007.3
20260503183055 5 290 12.9 37.0 0.00 0.13 0.00 48 1007.3
20260503181601 5 355 14.5 30.6 0.00 0.13 0.00 47 1007.4
20260503180055 6 335 9.7 25.7 0.00 0.15 0.00 49 1007.2
20260503174607 5 308 9.7 29.0 0.00 0.15 0.00 53 1007.3
20260503173050 5 321 12.9 25.7 0.00 0.15 0.00 49 1007.3
20260503171548 6 333 8.0 22.5 0.00 0.15 0.00 49 1007.2